Time,TemperatureF,DewpointF,PressureIn,WindDirection,WindDirectionDegrees,WindSpeedMPH,WindSpeedGustMPH,Humidity,HourlyPrecipIn,Conditions,Clouds,dailyrainin,SoftwareType,DateUTC
2013-03-04 00:00:00,27.8,19.0,30.13,North,0,0.0,0.0,69,0.00,,---,0.00,VWS V14.00,2013-03-04 05:00:00,
2013-03-04 00:30:00,27.4,18.6,30.13,North,0,0.0,0.0,69,0.00,,---,0.00,VWS V14.00,2013-03-04 05:30:00,
2013-03-04 01:00:00,27.9,18.4,30.14,North,0,0.0,0.0,67,0.00,,---,0.00,VWS V14.00,2013-03-04 06:00:00,
2013-03-04 01:30:00,29.0,18.0,30.14,North,0,0.0,0.0,63,0.00,,---,0.00,VWS V14.00,2013-03-04 06:30:00,
2013-03-04 02:00:00,29.4,17.6,30.14,North,0,0.0,0.0,61,0.00,,---,0.00,VWS V14.00,2013-03-04 07:00:00,
2013-03-04 02:30:00,29.9,17.3,30.15,North,0,0.0,0.0,59,0.00,,---,0.00,VWS V14.00,2013-03-04 07:30:00,
2013-03-04 03:00:00,30.1,17.5,30.16,North,0,0.0,0.0,59,0.00,,---,0.00,VWS V14.00,2013-03-04 08:00:00,
2013-03-04 03:30:00,29.6,17.4,30.16,North,0,0.0,0.0,60,0.00,,---,0.00,VWS V14.00,2013-03-04 08:30:00,
2013-03-04 04:00:00,29.2,19.6,30.16,North,0,0.0,0.0,67,0.00,,---,0.00,VWS V14.00,2013-03-04 09:00:00,
2013-03-04 04:30:00,29.2,17.1,30.17,North,0,0.0,0.0,60,0.00,,---,0.00,VWS V14.00,2013-03-04 09:30:00,
2013-03-04 05:00:00,29.4,18.0,30.18,North,0,0.0,0.0,62,0.00,,---,0.00,VWS V14.00,2013-03-04 10:00:00,
2013-03-04 05:30:00,29.7,17.1,30.19,North,0,0.0,0.0,59,0.00,,---,0.00,VWS V14.00,2013-03-04 10:30:00,
2013-03-04 06:00:00,29.9,19.2,30.19,North,0,0.0,0.0,64,0.00,,---,0.00,VWS V14.00,2013-03-04 11:00:00,
2013-03-04 06:30:00,31.4,17.5,30.19,North,0,0.0,0.0,56,0.00,,---,0.00,VWS V14.00,2013-03-04 11:30:00,
2013-03-04 07:00:00,32.2,18.3,30.20,North,0,0.0,0.0,56,0.00,,---,0.00,VWS V14.00,2013-03-04 12:00:00,
2013-03-04 07:30:00,34.1,17.9,30.20,North,0,0.0,0.0,51,0.00,,---,0.00,VWS V14.00,2013-03-04 12:30:00,
2013-03-04 08:00:00,35.8,17.6,30.20,North,0,0.0,0.0,47,0.00,,---,0.00,VWS V14.00,2013-03-04 13:00:00,
2013-03-04 08:30:00,37.8,17.3,30.21,North,0,0.0,0.0,43,0.00,,---,0.00,VWS V14.00,2013-03-04 13:30:00,
2013-03-04 09:00:00,40.5,16.3,30.20,North,0,0.0,0.0,37,0.00,,---,0.00,VWS V14.00,2013-03-04 14:00:00,
2013-03-04 09:30:00,42.6,17.5,30.21,North,0,0.0,0.0,36,0.00,,---,0.00,VWS V14.00,2013-03-04 14:30:00,
2013-03-04 10:00:00,44.5,19.9,30.20,North,0,0.0,0.0,37,0.00,,---,0.00,VWS V14.00,2013-03-04 15:00:00,
2013-03-04 10:30:00,47.0,22.1,30.20,North,0,0.0,0.0,37,0.00,,---,0.00,VWS V14.00,2013-03-04 15:30:00,
2013-03-04 11:00:00,48.3,23.3,30.18,North,0,0.0,0.0,37,0.00,,---,0.00,VWS V14.00,2013-03-04 16:00:00,
2013-03-04 11:30:00,51.3,26.6,30.17,North,0,0.0,0.0,38,0.00,,---,0.00,VWS V14.00,2013-03-04 16:30:00,
2013-03-04 12:00:00,52.9,26.0,30.16,North,0,0.0,0.0,35,0.00,,---,0.00,VWS V14.00,2013-03-04 17:00:00,
2013-03-04 12:30:00,54.6,28.9,30.14,North,0,0.0,0.0,37,0.00,,---,0.00,VWS V14.00,2013-03-04 17:30:00,
2013-03-04 13:00:00,55.8,28.6,30.12,North,0,0.0,0.0,35,0.00,,---,0.00,VWS V14.00,2013-03-04 18:00:00,
2013-03-04 13:30:00,55.8,29.3,30.11,North,0,0.0,0.0,36,0.00,,---,0.00,VWS V14.00,2013-03-04 18:30:00,
2013-03-04 14:00:00,55.7,29.2,30.11,North,0,0.0,0.0,36,0.00,,---,0.00,VWS V14.00,2013-03-04 19:00:00,
2013-03-04 14:30:00,55.2,29.4,30.11,North,0,0.0,0.0,37,0.00,,---,0.00,VWS V14.00,2013-03-04 19:30:00,
2013-03-04 15:00:00,55.0,29.2,30.10,North,0,0.0,0.0,37,0.00,,---,0.00,VWS V14.00,2013-03-04 20:00:00,
2013-03-04 15:30:00,54.6,29.5,30.09,North,0,0.0,0.0,38,0.00,,---,0.00,VWS V14.00,2013-03-04 20:30:00,
2013-03-04 16:00:00,53.8,28.8,30.10,North,0,0.0,0.0,38,0.00,,---,0.00,VWS V14.00,2013-03-04 21:00:00,
2013-03-04 16:30:00,53.3,29.0,30.09,North,0,0.0,0.0,39,0.00,,---,0.00,VWS V14.00,2013-03-04 21:30:00,
2013-03-04 17:00:00,52.6,29.0,30.09,North,0,0.0,0.0,40,0.00,,---,0.00,VWS V14.00,2013-03-04 22:00:00,
2013-03-04 17:30:00,51.6,29.3,30.08,North,0,0.0,0.0,42,0.00,,---,0.00,VWS V14.00,2013-03-04 22:30:00,
2013-03-04 18:00:00,50.4,29.9,30.09,North,0,0.0,0.0,45,0.00,,---,0.00,VWS V14.00,2013-03-04 23:00:00,
2013-03-04 18:30:00,48.7,30.4,30.08,North,0,0.0,0.0,49,0.00,,---,0.00,VWS V14.00,2013-03-04 23:30:00,
2013-03-04 19:00:00,47.1,29.9,30.07,North,0,0.0,0.0,51,0.00,,---,0.00,VWS V14.00,2013-03-05 00:00:00,
2013-03-04 19:30:00,45.1,31.2,30.10,North,0,0.0,0.0,58,0.00,,---,0.00,VWS V14.00,2013-03-05 00:30:00,
2013-03-04 20:00:00,43.6,31.0,30.10,North,0,0.0,0.0,61,0.00,,---,0.00,VWS V14.00,2013-03-05 01:00:00,
2013-03-04 20:30:00,42.2,30.9,30.09,North,0,0.0,0.0,64,0.00,,---,0.00,VWS V14.00,2013-03-05 01:30:00,
2013-03-04 21:00:00,40.7,30.6,30.10,North,0,0.0,0.0,67,0.00,,---,0.00,VWS V14.00,2013-03-05 02:00:00,
2013-03-04 21:30:00,39.3,31.4,30.09,North,0,0.0,0.0,73,0.00,,---,0.00,VWS V14.00,2013-03-05 02:30:00,
2013-03-04 22:00:00,38.3,30.8,30.10,North,0,0.0,0.0,74,0.00,,---,0.00,VWS V14.00,2013-03-05 03:00:00,
2013-03-04 22:30:00,37.5,30.6,30.10,North,0,0.0,0.0,76,0.00,,---,0.00,VWS V14.00,2013-03-05 03:30:00,
2013-03-04 23:00:00,37.0,30.5,30.11,North,0,0.0,0.0,77,0.00,,---,0.00,VWS V14.00,2013-03-05 04:00:00,
2013-03-04 23:30:00,36.4,30.2,30.11,North,0,0.0,0.0,78,0.00,,---,0.00,VWS V14.00,2013-03-05 04:30:00,